Home > Weather > Kaohsiung > Past weeks

Flag for Taiwan Weather for the Past 2 Weeks in Kaohsiung, Taiwan

Now
81 °F

Scattered clouds.


Feels Like: 83 °F
Forecast: 74 / 88 °F
Wind: 6 mph from East

Location: Kaohsiung International Airport

Current Time: Apr 30, 2016 at 9:36:57 AM

Latest Report: Apr 30, 2016 at 8:30 AM


Visibility: 5 mi

Pressure: 29.92 "Hg

Humidity: 62%

Dew Point: 66 °F

Location of KaohsiungLocation

Historic Weather in Kaohsiung — Graph

°F

Kaohsiung Temperature Yesterday

Maximum temperature yesterday: 84 °F (at 11:30 AM)
Minimum temperature yesterday: 75 °F (at 6:00 AM)
Average temperature yesterday: 81 °F

High & Low Weather Summary for the Past Weeks

 TemperatureHumidityPressure
High90 °F (Apr 18, 1:00 PM)100% (Apr 15, 7:03 AM)30.09 "Hg (Apr 15, 7:03 AM)
Low70 °F (Apr 19, 2:00 AM)49% (Apr 22, 12:00 PM)29.74 "Hg (Apr 27, 3:30 PM)
Average82 °F75%29.89 "Hg
* Reported Apr 15 7:03 AM — Apr 30 7:30 AM, Kaohsiung, Weather by CustomWeather, © 2016

Note: Actual official high and low records may vary slightly from our data, if they occured in-between our weather recording intervals... More about our weather records

Advertising

Kaohsiung Weather History for the Previous 24 Hours

Scroll right to see more
 ConditionsComfort  
Time TempWeatherWind HumidityBarometerVisibility
7:30 AM
Sat, Apr 30
77 °FScattered clouds.7 mph69%29.92 "Hg5 mi
7:00 AM75 °FScattered clouds.8 mph74%29.92 "Hg5 mi
6:30 AM75 °FBroken clouds.6 mph74%29.92 "Hg5 mi
6:00 AM73 °FBroken clouds.6 mph78%29.92 "Hg4 mi
5:00 AM73 °FPartly cloudy.3 mph78%29.89 "Hg4 mi
4:00 AM73 °FPassing clouds.6 mph78%29.89 "Hg4 mi
3:00 AM73 °FPartly cloudy.3 mph78%29.89 "Hg5 mi
2:00 AM73 °FPartly cloudy.3 mph69%29.89 "HgN/A
1:00 AM75 °FPartly cloudy.6 mph65%29.92 "HgN/A
12:00 AM79 °FPassing clouds.7 mph61%29.92 "HgN/A
11:30 PM
Fri, Apr 29
79 °FPassing clouds.6 mph65%29.92 "HgN/A
11:00 PM79 °FPassing clouds.8 mph61%29.95 "HgN/A
10:30 PM79 °FPassing clouds.7 mph61%29.95 "HgN/A
10:00 PM81 °FPartly cloudy.9 mph62%29.95 "HgN/A
9:30 PM81 °FPartly cloudy.8 mph62%29.95 "HgN/A
9:00 PM81 °FPartly cloudy.7 mph66%29.95 "Hg5 mi
8:30 PM81 °FPassing clouds.8 mph66%29.95 "Hg5 mi
8:00 PM81 °FPassing clouds.9 mph66%29.95 "Hg6 mi
7:30 PM81 °FPassing clouds.8 mph62%29.92 "Hg6 mi
7:00 PM81 °FPassing clouds.9 mph58%29.92 "Hg6 mi
6:30 PM81 °FPassing clouds.9 mph62%29.92 "HgN/A
6:00 PM81 °FScattered clouds.12 mph62%29.92 "HgN/A
5:30 PM81 °FScattered clouds.10 mph66%29.92 "HgN/A
5:00 PM82 °FScattered clouds.10 mph62%29.89 "HgN/A
4:30 PM82 °FScattered clouds.13 mph62%29.89 "HgN/A
4:00 PM82 °FBroken clouds.13 mph62%29.92 "HgN/A
3:30 PM82 °FBroken clouds.14 mph62%29.92 "HgN/A
3:00 PM84 °FPartly sunny.13 mph58%29.92 "HgN/A
2:30 PM82 °FPartly sunny.15 mph62%29.89 "HgN/A
2:00 PM84 °FPartly sunny.15 mph58%29.92 "HgN/A
12:30 PM84 °FPartly sunny.12 mph58%29.92 "HgN/A
12:00 PM84 °FPartly sunny.12 mph58%29.92 "HgN/A
11:30 AM84 °FBroken clouds.14 mph62%29.95 "Hg6 mi
10:30 AM82 °FScattered clouds.10 mph66%29.95 "HgN/A
9:30 AM82 °FScattered clouds.12 mph62%29.92 "HgN/A
9:00 AM82 °FScattered clouds.10 mph66%29.92 "Hg4 mi
Weather by CustomWeather, © 2016

See weather overviewHow to use our weather pages